Torna al catalogo

FALCON 9 R/B

AttivoHEO
NORAD 60234·ROCKET BODY·🇺🇸 United States

Lanciato Jul 8, 2024 da Cape Canaveral Space Force Station

Loading…

Prossimi Passaggi (prossime 24 ore)

TLE

AggiornatoSource: Space-Track

Epoca: Sep 6, 2026, 07:38 UTC

1 60234U 24127B   26249.31855929 -.00000470  00000-0  48703-3 0  9993
2 60234  27.7334 357.6593 8345651  11.6090 359.0488  1.03948158  7935

Traccia FALCON 9 R/B in tempo reale con AllMySat

Download on the App Store